Find Local Weather

World > North America > United States > Arizona

Green Valley, Arizona Regional Weather

Lat: 31.85N, Lon: 111.01W
Wx Zone: AZZ504
Feedback
Expires:201810180400;;349562
ASUS45 KPSR 180310
RWRAZ 

ARIZONA HOURLY REGIONAL WEATHER ROUNDUP
NATIONAL WEATHER SERVICE PHOENIX AZ
800 PM MST WED OCT 17 2018

NOTE: FAIR INDICATES FEW OR NO CLOUDS BELOW 12,000 FEET WITH NO
SIGNIFICANT WEATHER AND/OR OBSTRUCTIONS TO VISIBILITY.


AZZ503-504-507>509-180400-
SOUTHEAST ARIZONA
  
CITY           SKY/WX    TMP DP  RH WIND       PRES   REMARKS
TUCSON         CLEAR     63  43  48 E12       30.08R                  
DAVIS-MONTHAN  CLEAR     61  43  50 E14G23    30.07R                  
RYAN FIELD     CLEAR     64  43  45 E15       30.05S                  
NOGALES        CLEAR     60  41  49 NE10      30.09R                  
SIERRA VISTA   CLEAR     52  41  66 SE9       30.19R                  
DOUGLAS        CLEAR     52  41  66 E13G21    30.19R                  
SAFFORD        PTCLDY    54  45  71 SE12      30.22R                  
$$


SKY/WX - Weather  TMP - Temperature  DP - Dew Point  RH - Relative Humidity
WIND - Wind Direction/Speed PRES - Barometric Pressure
Opt in/Opt out of Taboola Video Ads